TimeCDT,TemperatureF,Dew PointF,Humidity,Sea Level PressureIn,VisibilityMPH,Wind Direction,Wind SpeedMPH,Gust SpeedMPH,PrecipitationIn,Events,Conditions,WindDirDegrees,DateUTC
12:15 AM,71.6,67.3,86,30.09,7.0,South,3.5,-,N/A,,Clear,180,2013-08-27 05:15:00
12:35 AM,72.5,68.0,86,30.08,7.0,South,3.5,-,N/A,,Clear,190,2013-08-27 05:35:00
1:15 AM,73.8,68.9,85,30.08,7.0,SW,4.6,-,N/A,,Clear,230,2013-08-27 06:15:00
1:35 AM,75.0,69.3,82,30.06,10.0,SW,6.9,-,N/A,,Clear,220,2013-08-27 06:35:00
1:55 AM,75.2,69.4,82,30.06,10.0,SW,5.8,-,N/A,,Clear,220,2013-08-27 06:55:00
2:15 AM,74.8,69.6,84,30.06,10.0,SW,5.8,-,N/A,,Clear,230,2013-08-27 07:15:00
2:35 AM,74.7,69.8,85,30.06,7.0,SW,4.6,-,N/A,,Clear,230,2013-08-27 07:35:00
2:55 AM,74.5,69.8,85,30.06,7.0,SW,4.6,-,N/A,,Clear,230,2013-08-27 07:55:00
3:15 AM,74.3,69.8,86,30.06,7.0,SW,4.6,-,N/A,,Clear,230,2013-08-27 08:15:00
3:35 AM,73.9,69.8,87,30.05,7.0,SW,4.6,-,N/A,,Clear,230,2013-08-27 08:35:00
3:55 AM,73.2,69.3,87,30.05,7.0,SW,4.6,-,N/A,,Clear,230,2013-08-27 08:55:00
4:15 AM,72.9,69.3,88,30.05,5.0,SW,4.6,-,N/A,,Clear,230,2013-08-27 09:15:00
4:35 AM,72.9,69.3,88,30.04,7.0,SW,5.8,-,N/A,,Clear,230,2013-08-27 09:35:00
4:55 AM,72.7,69.3,89,30.04,5.0,WSW,4.6,-,N/A,,Clear,240,2013-08-27 09:55:00
5:15 AM,73.4,69.4,87,30.04,7.0,WSW,5.8,-,N/A,,Clear,250,2013-08-27 10:15:00
5:35 AM,73.8,69.3,86,30.05,7.0,WSW,6.9,-,N/A,,Clear,250,2013-08-27 10:35:00
5:55 AM,74.3,69.3,84,30.05,7.0,WSW,5.8,-,N/A,,Clear,250,2013-08-27 10:55:00
6:15 AM,74.3,69.3,84,30.05,7.0,West,4.6,-,N/A,,Clear,260,2013-08-27 11:15:00
6:35 AM,74.3,69.3,84,30.06,7.0,West,5.8,-,N/A,,Clear,260,2013-08-27 11:35:00
6:55 AM,74.5,69.6,85,30.06,7.0,WSW,6.9,-,N/A,,Clear,250,2013-08-27 11:55:00
7:15 AM,75.4,69.8,83,30.06,10.0,WSW,6.9,-,N/A,,Clear,250,2013-08-27 12:15:00
7:55 AM,77.4,70.7,80,30.07,10.0,West,6.9,-,N/A,,Clear,260,2013-08-27 12:55:00
8:15 AM,78.8,70.9,77,30.07,10.0,West,9.2,-,N/A,,Clear,260,2013-08-27 13:15:00
8:35 AM,79.7,70.9,74,30.07,10.0,West,9.2,-,N/A,,Clear,260,2013-08-27 13:35:00
8:55 AM,81.7,71.6,71,30.07,10.0,West,9.2,-,N/A,,Clear,260,2013-08-27 13:55:00
9:15 AM,83.7,71.6,67,30.06,10.0,West,9.2,-,N/A,,Clear,260,2013-08-27 14:15:00
9:35 AM,84.4,71.6,65,30.07,10.0,West,9.2,-,N/A,,Clear,270,2013-08-27 14:35:00
9:55 AM,84.4,71.1,64,30.07,10.0,West,10.4,-,N/A,,Clear,270,2013-08-27 14:55:00
10:15 AM,85.5,71.4,63,30.06,10.0,West,10.4,-,N/A,,Clear,280,2013-08-27 15:15:00
10:35 AM,86.5,71.2,60,30.06,10.0,West,8.1,-,N/A,,Clear,270,2013-08-27 15:35:00
10:55 AM,87.1,71.6,60,30.06,10.0,West,10.4,-,N/A,,Clear,270,2013-08-27 15:55:00
11:15 AM,88.0,71.2,57,30.06,10.0,West,10.4,-,N/A,,Clear,270,2013-08-27 16:15:00
11:35 AM,89.2,71.4,56,30.05,10.0,WSW,10.4,-,N/A,,Clear,250,2013-08-27 16:35:00
11:55 AM,90.0,70.9,53,30.05,10.0,WSW,9.2,-,N/A,,Clear,250,2013-08-27 16:55:00
12:15 PM,90.1,70.7,53,30.04,10.0,WSW,8.1,-,N/A,,Clear,250,2013-08-27 17:15:00
12:35 PM,90.7,70.9,52,30.03,10.0,SW,12.7,16.1,N/A,,Clear,230,2013-08-27 17:35:00
12:55 PM,90.9,70.2,50,30.02,10.0,WSW,8.1,16.1,N/A,,Clear,250,2013-08-27 17:55:00
1:15 PM,91.2,71.1,51,30.02,10.0,WSW,11.5,16.1,N/A,,Clear,240,2013-08-27 18:15:00
1:35 PM,91.6,70.3,50,30.01,10.0,West,10.4,-,N/A,,Unknown,260,2013-08-27 18:35:00
1:55 PM,92.1,70.0,48,30.01,10.0,SW,12.7,-,N/A,,Unknown,220,2013-08-27 18:55:00
2:15 PM,92.8,70.0,47,30.00,10.0,SW,13.8,-,N/A,,Unknown,230,2013-08-27 19:15:00
2:35 PM,93.0,68.7,45,30.00,10.0,SW,10.4,-,N/A,,Unknown,230,2013-08-27 19:35:00
2:55 PM,93.4,68.2,44,29.99,10.0,WSW,11.5,17.3,N/A,,Unknown,240,2013-08-27 19:55:00
3:15 PM,92.8,68.0,44,29.99,10.0,SW,12.7,-,N/A,,Unknown,230,2013-08-27 20:15:00
3:35 PM,92.8,68.5,45,29.99,10.0,WSW,15.0,-,N/A,,Unknown,240,2013-08-27 20:35:00
3:55 PM,92.8,67.3,43,29.99,10.0,SW,11.5,-,N/A,,Unknown,230,2013-08-27 20:55:00
4:15 PM,93.2,65.7,40,29.98,10.0,WSW,12.7,-,N/A,,Unknown,240,2013-08-27 21:15:00
4:35 PM,93.7,65.7,39,29.98,10.0,WSW,9.2,-,N/A,,Unknown,250,2013-08-27 21:35:00
4:55 PM,93.7,66.4,40,29.98,10.0,WSW,10.4,-,N/A,,Unknown,240,2013-08-27 21:55:00
5:15 PM,92.5,66.4,42,29.98,10.0,WSW,12.7,-,N/A,,Unknown,240,2013-08-27 22:15:00
5:35 PM,91.8,67.1,44,29.98,10.0,SW,11.5,-,N/A,,Unknown,230,2013-08-27 22:35:00
5:55 PM,91.2,68.0,46,29.98,10.0,SW,9.2,-,N/A,,Unknown,220,2013-08-27 22:55:00
6:15 PM,90.0,69.1,50,29.97,10.0,SW,11.5,-,N/A,,Unknown,220,2013-08-27 23:15:00
6:35 PM,88.9,69.8,53,29.97,10.0,SW,9.2,-,N/A,,Clear,220,2013-08-27 23:35:00
7:15 PM,86.0,69.8,58,29.98,10.0,SW,6.9,-,N/A,,Clear,230,2013-08-28 00:15:00
7:35 PM,84.4,70.3,63,29.98,10.0,SW,8.1,-,N/A,,Clear,220,2013-08-28 00:35:00
7:55 PM,83.3,70.7,66,29.98,10.0,SW,5.8,-,N/A,,Clear,220,2013-08-28 00:55:00
8:15 PM,82.0,70.7,68,29.98,10.0,SW,5.8,-,N/A,,Clear,220,2013-08-28 01:15:00
8:35 PM,81.7,70.7,69,29.98,10.0,SW,8.1,-,N/A,,Clear,220,2013-08-28 01:35:00
8:55 PM,81.1,70.2,69,29.98,10.0,SW,5.8,-,N/A,,Clear,220,2013-08-28 01:55:00
9:15 PM,80.2,70.0,71,29.98,10.0,SW,5.8,-,N/A,,Clear,220,2013-08-28 02:15:00
9:35 PM,79.7,69.8,72,29.98,10.0,SW,6.9,-,N/A,,Clear,230,2013-08-28 02:35:00
9:55 PM,80.1,70.2,72,29.98,10.0,SW,9.2,-,N/A,,Clear,230,2013-08-28 02:55:00
10:15 PM,80.1,70.2,72,29.98,10.0,SW,10.4,-,N/A,,Clear,230,2013-08-28 03:15:00
10:35 PM,79.7,70.0,72,29.98,10.0,SW,9.2,-,N/A,,Clear,230,2013-08-28 03:35:00
10:55 PM,78.8,69.8,74,29.97,10.0,SW,9.2,-,N/A,,Clear,220,2013-08-28 03:55:00